Regional Weather Roundup
Issued by NWS

Home | Current Version | Previous Version | Text Only | Print | Product List | Glossary Off
Versions: 1 2 3 4 5 6 7 8 9 10 11 12 13 14 15 16 17 18 19 20 21 22 23 24 25 26 27 28 29 30 31 32 33 34 35 36 37 38 39 40 41 42 43 44 45 46 47 48 49 50

000
ASUS43 KBIS 301102
RWRND

NORTH DAKOTA REGIONAL WEATHER ROUNDUP
NATIONAL WEATHER SERVICE BISMARCK ND
600 AM CDT SAT MAY 30 2015

NOTE: "FAIR" INDICATES FEW OR NO CLOUDS BELOW 12,000 FEET WITH NO
SIGNIFICANT WEATHER AND/OR OBSTRUCTIONS TO VISIBILITY.


NDZ001>003-009>011-017-301200-
NORTHWEST NORTH DAKOTA

CITY           SKY/WX    TMP DP  RH WIND       PRES   REMARKS
WILLISTON      PTCLDY    41  33  73 E6        30.32R
MINOT          CLEAR     33  28  81 E6        30.39R
MINOT AFB      CLEAR     34  34  99 E6        30.39R
$$

NDZ018>021-031>035-040>046-301200-
SOUTHWEST NORTH DAKOTA

CITY           SKY/WX    TMP DP  RH WIND       PRES   REMARKS
BISMARCK       CLEAR     32  30  92 SE5       30.39R
DICKINSON      CLEAR     32  29  88 E7        30.30R
GARRISON         N/A     37  30  75 E8        30.38R
HETTINGER ARPT CLEAR     32  28  85 CALM      30.31S
$$

NDZ004>008-012>016-024-026-027-054-301200-
NORTHEAST NORTH DAKOTA

CITY           SKY/WX    TMP DP  RH WIND       PRES   REMARKS
GRAND FORKS    PTCLDY    30  25  81 N7        30.39R
GRND FRKS AFB  CLEAR     29  24  82 N8        30.39R
DEVILS LAKE    CLEAR     30  19  64 NE7       30.39S
$$

NDZ022-023-025-028>030-036>039-047>053-301200-
SOUTHEAST NORTH DAKOTA

CITY           SKY/WX    TMP DP  RH WIND       PRES   REMARKS
FARGO          CLEAR     35  28  75 N13       30.36R
JAMESTOWN      CLEAR     34  26  72 NE8       30.38R
$$




USA.gov is the U.S. government's official web portal to all federal, state and local government web resources and services.